Location: �perlecques
(50.8057°N, 2.1521°E)
Time: 18:27:08
(UTC+00:00)

SPOT 1/Viking Rocket - Pass Details

Date: 09 April 2020
Orbit: 776 x 795 km, 98.5° (Epoch: 24 May)

Event Time Altitude Azimuth Distance (km) Brightness Sun altitude
Exits shadow 21:30:44 39° 202° (SSW) 1,176 4.2 -23.7°
Maximum altitude 21:32:25 57° 259° (W) 934 4.0 -23.8°
Drops below altitude 10° 21:37:36 10° 338° (NNW) 2,377 7.0 -24.3°
Sets 21:39:59 0° 343° (NNW) 3,311 8.0 -24.6°
